Погода в Тамбове

Погода в Тамбове : погода сейчас, прогноз погоды и архив. Всё, что Вы хотите узнать о погоде в Тамбове!

Поиск расширенной информации на нашем сайте:

Другие новости

Новости СМИ2

Главная страница сайта

Новости сайта

02.10.2013

Напоминаем, что на нашем новом сайте вы можете получить высокодетализированные прогнозы погоды по пунктам России, СНГ и мира (включающие важные для авиации метеовеличины, такие как направление и скорость ветра, видимость, явления погоды, количество и форма облачности, нижняя и верхняя граница облачности), а также ознакомиться с разнообразными материалами по авиационной метеорологии и подборкой полезных ссылок на эту тему.

Сайт Метеоцентр.Азия посвящён разработке технологий оптимизации авиаметеорологического обслуживания, включая проектирование и перспективное создание нескольких автоматизированных авиаметеорологических систем:
- система выпуска высокодетальных прогностических карт явлений погоды для нижнего воздушного пространства по России и ближнему зарубежью;
- система верификации прогнозов TAF (выпускаемых синоптиками официальных АМСГ РФ и ближнего зарубежья) и AUTOTAF (выпускаемых сайтом Метеоцентр.Азия) - выявление ошибок, онлайн-сопоставление с фактической погодой METAR, автоматическое внесение коррективов в прогнозы при резком отклонении фактической погоды от прогноза, подсчёт оправдываемости прогнозов по элементам и в целом;
- система обработки, анализа и отображения авиаметеорологической информации для применения провайдерами метеорологической информации.

Рекомендуем: Помогите купить гироскутер недорого.

Погода в Тамбове - сегодня

Время (UTC), дата Ветер
(°,м/с) 
Видим.   Явления Облачность Т
(°С)
Тd
(°С)
f(%) Тe
(°С)
Pmin
(гПа)
dP
(гПа)
Po
(мм)
O2
(г/м3)
Тmin Tmax R s Состояние
почвы
09 26.04.17 200 (Ю) 10-15{17}  10 км    8/4 1000 м верхняя 
[Cu hum|Ci sp]
+15.3 -1.2 32 +14  1022.4  -0.7  755  288           
12 26.04.17 200 (Ю) 10-15{17}  10 км    8/4 1000 м верхняя 
[Cu hum|Ci sp]
+17.2 -2.2 26 +16  1021.6  -0.6  754  286           
15 26.04.17 200 (Ю) 10-15{17}  10 км    8/0 верхняя 
[Ci sp]
+16.5 -2.7 27 +16  1020.7  -1  754  287    +17.8       
18 26.04.17 190 (Ю) 5{15}  10 км    8/0 верхняя 
[Ci sp]
+13 -0.9 38 +12  1021.6  0.7  754  290           
21 26.04.17 190 (Ю) 5{12}  10 км    5/0 верхняя 
[Ci sp]
+11.2 -0.7 44 +10  1022.3  0.6  755  292           
00 27.04.17 190 (Ю) 6{11}  10 км    5/0 верхняя 
[Ci sp]
+9.2 +0.2 53 +7  1022.7  0.3  755  294           
03 27.04.17 180 (Ю) 6{10}  10 км    9/0 верхняя 
[Ci sp]
+7.9 +0.9 61 +6  1023.3  0.5  755  296  +7.8         
06 27.04.17 200 (Ю) 9-13{14}  10 км    8/0 верхняя 
[Ci sp]
+13 -2.5 34 +11  1023.3  0.3  755  291           
09 27.04.17 200 (Ю) 9-14{15}  10 км    8/0 верхняя 
[Ci sp]
+18 -0.7 28 +18  1022.7  -0.3  755  286           
12 27.04.17 200 (Ю) 11-16{17}  10 км    8/0 верхняя 
[Ci sp]
+19.7 -1.2 24 +19  1021.7  -0.9  755  284           
15 27.04.17 190 (Ю) 7-12{16}  10 км    8/0 верхняя 
[Ci sp]
+19.4 -1.2 25 +19  1020.1  -1.6  753  284    +20.5       
18 27.04.17 180 (Ю) 7-11{13}  10 км    5/0 верхняя 
[Ci sp]
+16 -1.4 30 +15  1021.2  0.8  754  287           
21 27.04.17 180 (Ю) 7-10{12}  10 км    4/0 верхняя 
[Ci sp]
+13.5 +0.2 40 +12  1021.8  0.5  754  290           
00 28.04.17 170 (Ю) 6{11}  10 км    6/0 верхняя 
[Ci sp]
+11.2 +1.7 52 +10  1022.2  0.3  755  292           
03 28.04.17 170 (Ю) 10 км    8/0 верхняя 
[Ci sp]
+9.4 +2.1 60 +8  1022.9  0.6  755  294  +8.8         
06 28.04.17 190 (Ю) 7{10}  10 км    8/0 верхняя 
[Ci sp]
+16.2 +7.4 56 +16  1023.1  0.5  755  286           
09 28.04.17 160 (Ю) 7-10{12}  10 км    8/0 верхняя 
[Ci sp]
+21.2 +4.6 34 +21  1022  -0.7  755  282           
12 28.04.17 190 (Ю) 6{12}  10 км    9/0 верхняя 
[Ci sp]
+22.3 +1.7 26 +22  1021.2  -0.7  754  281           
15 28.04.17 180 (Ю) 6{12}  10 км    9/0 верхняя 
[Ci sp]
+22.4 +3 28 +22  1020.6  -0.6  754  280    +23.4       
18 28.04.17 160 (Ю) 5{10}  10 км    6/0 верхняя 
[Ci sp]
+17.5 +1.7 35 +18  1021.4  0.5  754  285           
21 28.04.17 150 (ЮВ) 10 км    5/0 верхняя 
[Ci sp]
+15 +2.7 44 +15  1022.4  0.8  755  288           
00 29.04.17 140 (ЮВ) 10 км    3/0 верхняя 
[Ci sp]
+12.7 +3.2 52 +13  1022.7  0.2  755  290           
03 29.04.17 140 (ЮВ) 10 км    3/0 верхняя 
[Ci sp]
+11.6 +2.7 54 +11  1022.9  0.1  755  291  +10.8         
06 29.04.17 150 (ЮВ) 10 км    3/0 верхняя 
[Ci sp]
+16.1 +1.3 37 +16  1023  0.3  755  287           
09 29.04.17 120 (ЮВ) 5-10{13}  10 км    4/0 верхняя 
[Ci sp]
+19.5 +1.7 30 +20  1021.1  -1.6  754  283           
Время (UTC), дата Ветер
(°,м/с) 
Видим.   Явления Облачность Т
(°С)
Тd
(°С)
f(%) Тe
(°С)
Pmin
(гПа)
dP
(гПа)
Po
(мм)
O2
(г/м3)
Тmin Tmax R s Состояние
почвы

Для получения пояснительной информации подведите курсор к названию столбца.

ПОГОДА в Тамбове - архив

Всё, что Вы хотите узнать о погоде в Тамбове - удобно и подробно!

Выберите нужную дату (начиная с 1 января 2015* года) и нажмите кнопку "Найти".
Будут отображены архивные сводки погоды по пункту Тамбов, начиная с указанной даты.


Отображать данные в формате CSV (для использования в таблицах Excel)


Внимание! Наш архив погоды предназначен исключительно для личного некоммерческого использования в познавательных целях. Если Вам необходимы официальные справки о состоянии погоды (для производственных, юридических, коммерческих и т.п. целей), обращайтесь в органы Росгидромета.

*Примечание: данная дата относится к архиву по метеостанциям СССР (Россия, СНГ, Балтия).
Архив по метеостанциям Зарубежной Европы и Азии (кроме Китая) хранится 10 дней, по другим регионам земного шара (Китай, Африка, Америка, Австралия, Океания) - 1 день.

Тамбов - район местоположения метеостанции


Название, широта, долгота, высота метеостанции:
Тамбов 52.8°ш. 41.3°д. 128 м над ур. моря [Российская Федерация]

Дополнительная информация

В oтличие oт бoльшинства пoгoдных сайтoв мы публикуем пoдрoбную метеoинфoрмацию в детальнoм прoфессиoнальнoм фoрмате.

Характеристики температуры и влажнoсти вoздуха измеряются на высoте 2 м в тени вдали oт зданий и деревьев.
Скoрoсть ветра измеряется на высoте 10 м (на урoвне рoста челoвека скoрoсть ветра ниже в 1.5-2 раза). Если метеoстанция нахoдится в гoрoде или в лесу, тo скoрoсть ветра занижена на 2-4 м/с пo сравнению с oткрытым местoм. Скoрoсть ветра над акватoриями крупных рек и oзёр, а также на вершинах хoлмoв на 2-5 м/с выше, чем в oбычных услoвиях.
Атмoсфернoе давление в разных тoчках местнoсти мoжет значительнo oтличаться oт давления на метеoстанции, в зависимoсти oт услoвий рельефа (при пoдъёме на 10 м давление пoнижается примернo на 1 мм рт.ст.).